User: anonymous
Location: Unspecified
(0.0000°N, 0.0000°E)
Time: 14:11:59
(UTC+02:00)
Language:

Cosmos 2082 Rocket - Orbit

View from above orbital plane
View from above orbital plane
View from above satellite
View from above satellite

Ground track
Ground track

The orbit data is extracted from the following two-line orbital elements,

1 20625U 90046B   14242.15069392 -.00000070  00000-0 -11726-4 0  7967
2 20625 070.9988 134.0755 0015651 226.2561 286.1025 14.14529258253303
Epoch (UTC): 30 August 2014 03:36:59
Eccentricity: 0.0015651
inclination: 70.9988°
perigee height: 832 km
apogee height: 855 km
right ascension of ascending node: 134.0755°
argument of perigee: 226.2561°
revolutions per day: 14.14529258
mean anomaly at epoch: 286.1025°
orbit number at epoch: 25330

The dashed part of the orbit path shows where the satellite is in the earth's shadow,  

DLR